www.pogodaiklimat.ru

Погода и климат >> Архив погоды >> Россия >> Свердловская область >> Невьянск


ПОГОДА в Невьянске

  • Прогноз погоды в Невьянске
  • Монитор погоды в Невьянске

АРХИВ ПОГОДЫ в Невьянске

Время (UTC), дата Ветер
(напр.,м/с)
 
Видим.   Явления Облачность Т
(С)
Тd
(С)
f
(%)
Тe
(С)
Тes
(С)
Комфортность P
(гПа)
Po
(гПа)
Тmin
(С)
Tmax
(С)
R
(мм)
R24
(мм)
S
(см)
18 14.05 В 4 4000 м 8/0
[Ac trans Ci fib]
+6.3 -1.9 56 +3 +3 1026.5 994.7
21 14.05 В 3 4000 м ясно +3.3 -4.5 57 -0 -0 1028.1 996.0
00 15.05 В 3 50 км 8/0
[Ac trans Cc]
+1.6 -4.5 64 -2 -2 1029.2 996.7
03 15.05 ЮВ 5 50 км 8/0
[Ac trans Ci fib]
+3.7 -4.8 54 -1 +1 1029.2 997.0 +1.6
06 15.05 В 5 50 км 6/0
[Cc]
+9.2 -5.6 35 +7 +12 1028.2 996.7
09 15.05 ЮВ 4
{11}
50 км 3/0
[Ci fib]
+12.5 -4.8 30 +11 +20 1026.6 995.5
12 15.05 ЮВ 4 50 км 8/0
[Ac trans Ci fib]
+13.9 -4.4 28 +13 +16 1025.3 994.3
15 15.05 ЮВ 4 50 км 8/0
[Ac trans Ci fib]
+11.9 -4.3 32 +10 +11 1024.8 993.7 +14.0
18 15.05 ЮВ 4 4000 м 8/3 600 м
[Sc Ac trans]
+9.5 -2.9 42 +7 +7 1024.7 993.4
21 15.05 Ю 3 4000 м 8/0
[Ac trans]
+8.5 -3.5 43 +7 +7 1024.4 992.9
00 16.05 Ю 4 50 км 9/0
[Ac trans]
+8.0 -3.1 45 +5 +5 1023.4 991.9
03 16.05 Ю 4 50 км 9/6 600 м
[Sc Ac trans]
+8.2 -2.1 48 +6 +6 1022.3 990.8 +7.8
06 16.05 ЮВ 5 50 км 8/4 600 м
[Sc Ac trans]
+11.1 -1.1 43 +9 +11 1020.8 989.7
09 16.05 ЮВ 5 50 км 8/5 600 м
[Cb cap Ac trans]
+14.9 -0.9 34 +14 +16 1018.0 987.4
12 16.05 Ю 7
{10}
50 км 9/6 600 м
[Cb cap Ac trans]
+15.1 +1.3 39 +13 +14 1015.8 985.3
15 16.05 Ю 4
{10}
50 км {ливн. осадки} 9/8 600 м
[Cb cap Ac trans]
+13.1 +5.4 60 +12 +12 1013.4 982.8 +15.6 0.0
18 16.05 Ю 5
{14}
1000 м слаб. ливневой дождь 9/9 720 м
[Cb cap]
+10.3 +8.2 87 +7 +7 1011.7 980.8
21 16.05 Ю 3 4000 м {ливн. осадки} 9/9 720 м
[Cb cap]
+9.8 +7.8 87 +8 +8 1009.1 978.3
00 17.05 Ю 2 10 км слаб. ливневой дождь 9/9 660 м
[Cb cap]
+9.7 +8.0 89 +8 +8 1006.8 976.0
03 17.05 СЗ 3 9000 м слаб. ливневой дождь 9/9 600 м
[Cb cap]
+9.1 +8.0 93 +7 +7 1005.4 974.6 +9.1 7
06 17.05 СЗ 4 8000 м слаб. ливневой дождь 8/8 720 м
[Cb cap]
+8.3 +6.6 89 +5 +7 1005.4 974.5 +8.3
09 17.05 СЗ 7-10
{13}
50 км {ливн. осадки} 9/9 660 м
[Cb cap]
+5.3 +2.2 80 0 0 1007.9 976.6
12 17.05 СЗ 8-11
{13}
50 км в посл. час ливневой дождь 8/8 600 м
[Cb cap]
+6.5 -1.5 57 +2 +2 1009.2 978.0
15 17.05 СЗ 6
{14}
50 км 9/8 600 м
[Sc Ac trans]
+5.7 -4.0 50 +1 +1 1010.4 979.0 +9.1 1
18 17.05 З 3
{11}
4000 м 3/3 600 м
[Sc]
+2.9 -3.4 63 -1 -1 1010.5 978.8
21 17.05 ЮЗ 2 4000 м 1/1 600 м
[Sc]
+2.1 -3.1 68 -1 -1 1008.7 977.0
00 18.05 Ю 3 50 км 6/6 600 м
[Sc]
+0.7 -2.5 79 -4 -4 1006.8 975.0
03 18.05 ЮЗ 4 50 км в посл. час ливневой дождь 9/8 600 м
[Cb cap Ac trans]
+3.0 -0.0 81 -2 -1 1004.9 973.4 +0.7 0.0
06 18.05 З 6-10
{10}
50 км {ливн. осадки} 9/9 870 м
[Sc]
+6.1 +0.2 66 +2 +2 1003.1 972.0
09 18.05 З 5
{12}
50 км в посл. час ливневой дождь 8/8 600 м
[Cb cap]
+4.8 +1.3 78 0 +2 1003.2 972.0
12 18.05 З 4
{11}
50 км {ливн. осадки} 8/8 600 м
[Cb cap]
+8.0 -0.7 54 +5 +6 1002.1 971.2
15 18.05 З 3
{12}
50 км {ливн. осадки} 8/6 600 м
[Cb cap Ac trans]
+4.8 -0.3 70 +2 +2 1002.3 971.1 +8.4 0.9
18 18.05 З 3 4000 м {ливн. осадки} 8/3 600 м
[Sc Ac trans]
+3.5 -0.4 76 -0 -0 1002.1 970.8
21 18.05 СЗ 5 4000 м 8/0
[Ac trans]
+3.0 -1.0 75 -2 -2 1001.3 969.9
00 19.05 З 2 50 км в посл. час ливневой дождь 9/9 630 м
[Cb cap]
+2.0 -0.1 86 -1 -1 1001.4 969.9
03 19.05 СЗ 4 50 км 9/9 660 м
[Cb cap]
+2.4 -1.5 75 -2 -2 1001.2 969.8 +1.5 0.4
06 19.05 СЗ 5
{11}
50 км 8/5 600 м
[Cb cap Ci fib]
+4.7 -2.4 60 0 +3 1001.1 969.9
09 19.05 З 7-12
{12}
50 км 8/8 600 м
[Cb cap]
+5.3 -1.0 64 0 +1 1002.1 970.9
12 19.05 СЗ 4
{13}
50 км 8/5 600 м
[Cb cap Ci sp]
+7.5 -4.1 44 +5 +7 1002.8 971.9
15 19.05 СЗ 5 50 км {ливн. осадки} 6/3 600 м
[Cb cap Ci sp]
+6.5 -2.5 53 +3 +3 1004.3 973.2 +8.0 0.4
18 19.05 З 3 4000 м {ливн. осадки} 4/0
[Ac trans]
+2.9 -0.8 77 -1 -1 1005.4 973.9
21 19.05 З 2 4000 м ясно +1.4 -1.7 80 -2 -2 1005.5 973.8
00 20.05 З 2 50 км 6/0
[Cc]
+0.5 -1.9 84 -3 -3 1005.7 973.9
03 20.05 З 3 50 км 9/6 600 м
[Cb cap Ac trans]
+3.6 -1.2 71 0 +1 1005.6 974.2 +0.5
06 20.05 З 2 10 км слаб. ливневой дождь 9/8 600 м
[Cb cap Ac trans]
+3.4 +0.7 82 +1 +2 1006.2 974.7
09 20.05 СЗ 4 50 км в посл. час ливневой дождь 8/6 600 м
[Cb cap Ac trans]
+4.6 +1.1 78 +1 +3 1006.5 975.2
12 20.05 СЗ 10-17
{17}
50 км {ливн. осадки} 8/6 600 м
[Cb cap Ac trans]
+7.6 -0.7 56 +3 +3 1006.7 975.6
15 20.05 З 3
{17}
50 км в посл. час ливневой дождь 9/5 600 м
[Cb cap Ac trans Ci fib]
+4.3 +1.7 83 +1 +1 1008.5 977.0 +8.6 1
18 20.05 ЮЗ 1 4000 м {ливн. осадки} 8/8 600 м
[Sc]
+2.9 +1.1 88 +1 +1 1008.8 977.2
21 20.05 ЮЗ 1 4000 м 3/0
[Ac trans]
+2.9 +1.0 87 +1 +1 1008.0 976.5
00 21.05 СЗ 2 10 км слаб. ливневой дождь 9/9 720 м
[Cb cap]
+2.2 +0.5 89 -1 -1 1008.4 976.8
03 21.05 СЗ 4 8000 м слаб. ливневой дождь 9/9 600 м
[Cb cap]
+1.9 +0.3 89 -3 -3 1009.2 977.5 +1.3 2
06 21.05 СЗ 5 9000 м слаб. ливневой дождь 9/9 700 м
[Cb cap]
+3.3 +0.5 82 -2 -1 1010.2 978.6
09 21.05 СЗ 4
{10}
50 км {ливн. осадки} 8/6 600 м
[Cb cap Ac trans]
+4.0 -0.2 74 -0 +2 1011.8 980.2
12 21.05 СЗ 5
{10}
50 км {ливн. осадки} 9/9 720 м
[Cb cap]
+4.9 -0.8 67 +1 +1 1013.0 981.5
15 21.05 СЗ 3 50 км 8/5 600 м
[Sc Ac trans]
+4.8 -0.8 67 +2 +2 1013.6 982.1 +5.0 0.5

 

Местоположение метеостанции Невьянск (Свердловская область, Россия): широта 57.50 долгота 60.25 высота над уровнем моря 257 м.

В архиве по умолчанию представлена погода в Невьянске за последнюю неделю. Архивные данные за месяц целиком и за предыдущие месяцы, начиная с января 2011 года, Вы можете получить, выбрав интересующий диапазон дат из раскрывающегося списка и нажав кнопку "Ввод!".


*Определитесь, кто Вы:
робот инопланетянин человек

Внимание! Время в таблицах - всемирное. Для получения местного времени необходимо прибавить поправку, которая равна 5 ч.

Смотрите также архив погоды в соседних городах и на ближайших метеорологических станциях:

Погода в Нижнем Тагиле (Свердловская область, Россия) (44 км)
Погода в Висиме (Свердловская область, Россия) (47 км)
Погода в Ревде (Свердловская область, Россия) (71 км)
Погода в Екатеринбурге (Свердловская область, Россия) (78 км)
Погода в Екатеринбурге (Бот.сад) (Свердловская область, Россия) (82 км)
Погода в Алапаевске (Свердловская область, Россия) (96 км)
Погода в Кушве (Свердловская область, Россия) (96 км)
Погода в Верхнем Дуброво (Свердловская область, Россия) (99 км)
Погода в Бисерти (Свердловская область, Россия) (99 км)
Погода в Мариинске (Свердловская область, Россия) (101 км)

Пояснения к столбцам:

Ветер - указаны скорость ветра в м/с - средняя за 10 мин, порывы в срок и между сроками (в фигурных скобках) и направление, откуда дует ветер: С - северный, СВ - северо-восточный, В - восточный, ЮВ - юго-восточный, Ю - южный, ЮЗ - юго-западный, З - западный, СЗ - северо-западный.
Видимость - горизонтальная дальность видимости в метрах или километрах. При видимости от 1 до 10 км при отсутствии осадков обычно наблюдается дымка, при ухудшении видимости до 1 км и менее - туман. В сухую погоду видимость может ухудшаться дымом, пылью или мглою.
Явления - указаны атмосферные явления, наблюдавшиеся в срок или в последний час перед сроком; фигурными скобками обозначены явления, наблюдавшиеся между сроками (за 1-3 часа до срока); квадратными скобками обозначены град или гололедные отложения с указанием их диаметра в мм.
Облачность - указаны через наклонную черту общая и нижняя облачность в баллах и высота нижней границы облаков в метрах; квадратными скобками обозначены формы облаков: Ci - перистые, Cs - перисто-слоистые, Cc - перисто-кучевые, Ac - высококучевые, As - высокослоистые, Sc - слоисто-кучевые, Ns - слоисто-дождевые, Cu - кучевые, Cb - кучево-дождевые. Подробнее классификацию облаков см. в Атласе облаков (PDF).
T - Температура воздуха - температура, измеренная на высоте 2 м над землей.
Td - Температура точки росы - температура, при понижении до которой содержащийся в воздухе водяной пар достигнет насыщения.
f - Относительная влажность воздуха - влажноcть воздуха, измеренная на высоте 2 м над землей.
Te - Эффективная температура - температура, которую ощущает одетый по сезону человек в тени. Характеристика душности погоды. При расчете учитывается влияние влажности воздуха и скорости ветра на теплоощущения человека.
Tes - Эффективная температура на солнце - температура, которую ощущает человек, с поправкой на солнечный нагрев. Характеристика знойности погоды. Зависит от высоты солнца над горизонтом, облачности и скорости ветра. Ночью, в пасмурную погоду, а также при ветре 12 м/с и более поправка равна нулю.
P - Атмосферное давление - приведенное к уровню моря атмосферное давление.
Po - Атмосферное давление - измеренное на уровне метеостанции атмосферное давление.
Tmin - Минимальная температура - минимум температуры воздуха на высоте 2 м над землей.
Tmax - Максимальная температура - максимум температуры воздуха на высоте 2 м над землей.
R - Количество осадков - Количество выпавших осадков за период времени, мм. При наведении курсора мыши на число - период времени, за который выпало указанное количество осадков.
R24 - Количество осадков - Количество выпавших осадков за 24 часа, мм.
S - Снежный покров - Высота снежного покрова, см. При наведении курсора мыши на число - состояние снежного покрова и степень покрытия местности в баллах.